Atlantic City, NJ

9:22 PM EST on December 17, 2017 (GMT -0500)
Atlantic City International

Weather History for KACY - May, 2014

Change the Weather History Date:

Saturday, May 17, 2014

  Actual Average Record
Temperature  
Mean Temperature 61 °F 61 °F  
Max Temperature 70 °F 72 °F 93 °F (1974)
Min Temperature 51 °F 51 °F 34 °F (1967)
Degree Days  
Heating Degree Days 4 5  
Month to date heating degree days 80 122  
Since 1 July heating degree days 5256 4826  
Cooling Degree Days 0 2  
Month to date cooling degree days 14 20  
Year to date cooling degree days 14 29  
Growing Degree Days 10 (Base 50)    
Moisture  
Dew Point 49 °F    
Average Humidity 68    
Maximum Humidity 100    
Minimum Humidity 36    
Precipitation  
Precipitation 0.00 in 0.10 in 1.25 in (1995)
Month to date precipitation 1.02 1.74  
Year to date precipitation 18.94 15.67  
Snow  
Snow 0.00 in 0.00 in 0.00 in ()
Month to date snowfall 0.0 0.0  
Since 1 July snowfall 43.8 16.5  
Snow Depth 0.00 in    
Sea Level Pressure  
Sea Level Pressure 30.01 in    
Wind  
Wind Speed 7 mph (West)    
Max Wind Speed 17 mph    
Max Gust Speed 25 mph    
Visibility 8 miles    
Events      
T = Trace of Precipitation, MM = Missing Value Source: NWS Daily Summary

Daily Weather History Graph

Daily Weather History Graph

Search for Another Location

Airport or City:

Trip Planner

Search our weather history database for the weather conditions in past years. The results will help you decide how hot, cold, wet, or windy it might be!

Date:

Astronomy

May. 17, 2014 Rise Set
Actual Time 5:42 AM EDT 8:07 PM EDT
Civil Twilight 5:12 AM EDT 8:37 PM EDT
Nautical Twilight 4:34 AM EDT 9:15 PM EDT
Astronomical Twilight 3:52 AM EDT 9:57 PM EDT
Moon 11:05 PM EDT (5/17) 8:22 AM EDT (5/17)
Length of Visible Light 15h 25m
Length of Day
14h 24m
Waning Gibbous, 89% of the Moon is Illuminated
May 17
Waning Gibbous
May 21
Last Quarter
May 28
New
Jun 5
First Quarter
Jun 13
Full

Hourly Weather History & Observations

Time (EDT) Temp. Dew Point Humidity Pressure Visibility Wind Dir Wind Speed Gust Speed Precip Events Conditions
12:26 AM 55.9 °F 55.9 °F 100% 29.89 in 1.8 mi Calm Calm - N/A   Scattered Clouds
12:29 AM 55.9 °F 55.9 °F 100% 29.89 in 0.8 mi Calm Calm - N/A   Partly Cloudy
12:54 AM 57.0 °F 55.9 °F 96% 29.89 in 0.8 mi West 4.6 mph - N/A   Partly Cloudy
12:59 AM 59.0 °F 57.9 °F 96% 29.90 in 1.8 mi WSW 5.8 mph - N/A   Partly Cloudy
1:06 AM 57.9 °F 57.9 °F 100% 29.91 in 6.0 mi SSW 4.6 mph - N/A   Clear
1:54 AM 57.0 °F 57.0 °F 100% 29.88 in 8.0 mi WNW 5.8 mph - N/A   Clear
2:54 AM 55.9 °F 55.9 °F 100% 29.91 in 9.0 mi WNW 4.6 mph - N/A   Scattered Clouds
3:54 AM 54.0 °F 53.1 °F 97% 29.92 in 10.0 mi NW 3.5 mph - N/A   Partly Cloudy
4:54 AM 54.0 °F 52.0 °F 93% 29.95 in 10.0 mi WNW 6.9 mph - N/A   Mostly Cloudy
5:54 AM 51.1 °F 50.0 °F 96% 29.96 in 7.0 mi WNW 6.9 mph - N/A   Clear
6:54 AM 53.1 °F 50.0 °F 89% 30.00 in 9.0 mi WNW 8.1 mph - N/A   Clear
7:54 AM 55.0 °F 50.0 °F 83% 30.01 in 10.0 mi WNW 10.4 mph - N/A   Clear
8:54 AM 57.9 °F 51.1 °F 78% 30.02 in 10.0 mi NW 4.6 mph - N/A   Clear
9:54 AM 61.0 °F 51.1 °F 70% 30.04 in 10.0 mi Variable 3.5 mph - N/A   Clear
10:54 AM 64.0 °F 50.0 °F 60% 30.04 in 10.0 mi WNW 5.8 mph - N/A   Partly Cloudy
11:54 AM 64.9 °F 48.9 °F 56% 30.05 in 10.0 mi West 5.8 mph - N/A   Mostly Cloudy
12:54 PM 66.9 °F 46.0 °F 47% 30.04 in 10.0 mi SW 5.8 mph - N/A   Mostly Cloudy
1:54 PM 68.0 °F 46.0 °F 45% 30.04 in 10.0 mi West 11.5 mph - N/A   Scattered Clouds
2:54 PM 66.9 °F 43.0 °F 42% 30.04 in 10.0 mi West 15.0 mph 20.7 mph N/A   Mostly Cloudy
3:54 PM 70.0 °F 43.0 °F 38% 30.04 in 10.0 mi WNW 12.7 mph 23.0 mph N/A   Scattered Clouds
4:54 PM 69.1 °F 42.1 °F 38% 30.04 in 10.0 mi WNW 11.5 mph - N/A   Scattered Clouds
5:54 PM 69.1 °F 41.0 °F 36% 30.05 in 10.0 mi West 8.1 mph - N/A   Mostly Cloudy
6:54 PM 64.0 °F 42.1 °F 45% 30.06 in 10.0 mi West 8.1 mph - N/A   Partly Cloudy
7:54 PM 62.1 °F 43.0 °F 50% 30.09 in 10.0 mi West 6.9 mph - N/A   Mostly Cloudy
8:54 PM 60.1 °F 44.1 °F 55% 30.11 in 10.0 mi West 6.9 mph - N/A   Clear
9:54 PM 57.0 °F 45.0 °F 64% 30.13 in 10.0 mi WNW 4.6 mph - N/A   Clear
10:54 PM 57.9 °F 44.1 °F 60% 30.13 in 10.0 mi West 5.8 mph - N/A   Clear
11:54 PM 54.0 °F 44.1 °F 69% 30.13 in 10.0 mi West 3.5 mph - N/A   Clear